Home > Weather > Bologna > Past weeks

Flag for Italy Weather for the Past 2 Weeks in Bologna, Italy

Now
63 °F

Passing clouds.


Feels Like: 63 °F
Forecast: 52 / 69 °F
Wind: 14 mph from Northwest

Location: Bologna / Borgo Panigale

Current Time: May 4, 2016 at 10:40:58 AM

Latest Report: May 4, 2016 at 9:50 AM


Visibility: N/A

Pressure: 30.07 "Hg

Humidity: 52%

Dew Point: 45 °F

Location of BolognaLocation

Historic Weather in Bologna — Graph

°F

Bologna Temperature Yesterday

Maximum temperature yesterday: 73 °F (at 2:20 PM)
Minimum temperature yesterday: 48 °F (at 5:50 AM)
Average temperature yesterday: 63 °F

High & Low Weather Summary for the Past Weeks

 TemperatureHumidityPressure
High73 °F (May 3, 2:20 PM)100% (Apr 24, 1:20 AM)30.30 "Hg (Apr 24, 1:20 AM)
Low39 °F (Apr 26, 3:20 AM)20% (Apr 25, 6:50 PM)29.53 "Hg (Apr 24, 2:50 AM)
Average57 °F69%29.92 "Hg
* Reported Apr 19 8:50 AM — May 4 8:50 AM, Bologna, Weather by CustomWeather, © 2016

Note: Actual official high and low records may vary slightly from our data, if they occured in-between our weather recording intervals... More about our weather records

Advertising

Bologna Weather History for the Previous 24 Hours

Scroll right to see more
 ConditionsComfort  
Time TempWeatherWind HumidityBarometerVisibility
8:50 AM
Wed, May 4
61 °FPassing clouds.12 mph59%30.04 "HgN/A
8:20 AM61 °FPassing clouds.9 mph55%30.04 "HgN/A
7:50 AM59 °FSunny.6 mph68%30.04 "Hg10 mi
6:50 AM54 °FPassing clouds.7 mph82%30.01 "HgN/A
6:20 AM54 °FClear.9 mph82%30.01 "Hg10 mi
5:50 AM55 °FClear.7 mph77%30.01 "Hg10 mi
5:20 AM55 °FPassing clouds.7 mph77%30.01 "HgN/A
4:50 AM57 °FPassing clouds.7 mph72%30.01 "HgN/A
4:20 AM57 °FPassing clouds.9 mph72%30.01 "HgN/A
3:50 AM57 °FPassing clouds.8 mph72%29.98 "HgN/A
3:20 AM54 °FPassing clouds.5 mph88%29.98 "HgN/A
2:50 AM55 °FPassing clouds.3 mph77%29.98 "HgN/A
2:20 AM55 °FPassing clouds.5 mph82%29.95 "HgN/A
1:50 AM57 °FPassing clouds.7 mph67%29.95 "HgN/A
1:20 AM57 °FPassing clouds.8 mph72%29.98 "HgN/A
12:50 AM57 °FLight rain. Passing clouds.15 mph72%29.98 "HgN/A
12:20 AM57 °FLight rain. Passing clouds.10 mph72%29.98 "HgN/A
11:50 PM
Tue, May 3
57 °FThundershowers. Passing clouds.14 mph72%29.98 "HgN/A
11:20 PM57 °FPassing clouds.10 mph72%29.95 "HgN/A
10:50 PM57 °FLight rain. Passing clouds.8 mph77%29.98 "HgN/A
10:20 PM57 °FThunderstorms. Passing clouds.7 mph72%29.95 "HgN/A
9:50 PM61 °FThunderstorms. Passing clouds.16 mph59%29.95 "HgN/A
9:20 PM63 °FThundershowers. Scattered clouds.8 mph56%29.89 "HgN/A
8:50 PM64 °FPassing clouds.6 mph49%29.89 "HgN/A
8:20 PM64 °FPassing clouds.6 mph49%29.89 "HgN/A
7:50 PM66 °FPassing clouds.9 mph52%29.89 "HgN/A
7:20 PM68 °FPassing clouds.15 mph46%29.86 "HgN/A
6:50 PM72 °FPassing clouds.3 mph44%29.86 "HgN/A
6:20 PM72 °FPassing clouds.3 mph47%29.86 "HgN/A
5:50 PM73 °FPassing clouds.3 mph41%29.86 "HgN/A
5:20 PM73 °FPassing clouds.6 mph41%29.86 "HgN/A
4:50 PM73 °FPassing clouds.7 mph41%29.89 "HgN/A
4:20 PM73 °FPassing clouds.6 mph41%29.89 "HgN/A
3:50 PM73 °FPassing clouds.6 mph41%29.89 "HgN/A
3:20 PM73 °FPassing clouds.6 mph38%29.89 "HgN/A
2:50 PM73 °FPassing clouds.3 mph41%29.92 "HgN/A
2:20 PM73 °FPassing clouds.6 mph36%29.92 "HgN/A
1:20 PM72 °FPassing clouds.5 mph47%29.95 "HgN/A
12:50 PM70 °FPassing clouds.5 mph46%29.95 "HgN/A
11:50 AM70 °FPassing clouds.5 mph53%29.98 "HgN/A
11:20 AM68 °FPassing clouds.6 mph53%29.98 "HgN/A
10:50 AM66 °FPassing clouds.6 mph60%29.98 "HgN/A
10:20 AM66 °FPassing clouds.8 mph56%29.98 "HgN/A
Weather by CustomWeather, © 2016

See weather overviewHow to use our weather pages